Simultaneous Nadir Overpasses (SNOs) Predictions

Prediction of SNOs between NOAA-19 and METOP-C Satellite Orbit:

Table of predicted SNOs for the next 14.0 days since TLE Epoch: 2/1/2025
Index Date (NOAA-19) Time (NOAA-19) Lat,Lon (NOAA-19) SZA (NOAA-19 ) Date (METOP-C) Time (METOP-C) Lat,Lon (METOP-C) SZA (METOP-C ) Distance(km) Time Diff (sec)
1 02/09/2025 10:28:11 77.75, 120.95 105.13 02/09/2025 10:29:25 77.74, 120.98 105.20 0.69 74
2 02/09/2025 11:19:07 -77.46, -70.36 74.57 02/09/2025 11:19:58 -77.46, -70.36 74.52 0.18 51
3 02/09/2025 12:09:58 77.35, 97.45 105.55 02/09/2025 12:10:37 77.34, 97.50 105.59 1.55 39
4 02/09/2025 13:00:53 -77.01, -93.77 74.11 02/09/2025 13:01:09 -77.01, -93.75 74.09 0.71 16
5 02/09/2025 13:51:44 76.89, 74.01 106.00 02/09/2025 13:51:48 76.88, 74.09 106.02 2.47 4
6 02/09/2025 14:42:37 -76.46,-116.98 73.57 02/09/2025 14:42:18 -76.45,-116.93 73.58 1.62 19
7 02/09/2025 15:33:21 76.02, 51.92 106.85 02/09/2025 15:32:51 76.04, 51.83 106.80 3.04 30
8 02/09/2025 16:24:19 -75.80,-140.04 72.94 02/09/2025 16:23:25 -75.78,-139.97 72.98 2.61 54



Historial Predications of SNOs between NOAA-19 and METOP-C
